When you browse on this site, cookies collect data to enhance your experience and personalize the content and advertising you see.
Visit our Privacy Policy to learn more. By continuing to use the site, you agree to this use of cookies and data.
  • Em Portugal
  • Lista de países
  • Para 7 dias
  • Temperatura da água
  • Mapa do tempo
  • Widgets de tempo
  • user-avatar
    Iniciar Sessão

    Previsão horária em Sincovo

    Hoje, 3 Junho, Quarta-feira

    Tempo Temperatura Precipitação Vento Pressão Humidade
    00:00 +7°C° 0 mm 4 m/s 748 mmHg 91%
    01:00 +8°C° 0 mm 4 m/s 748 mmHg 92%
    02:00 +8°C° 0 mm 4 m/s 747 mmHg 93%
    03:00 +8°C° 0.3 mm 4 m/s 747 mmHg 94%
    04:00 +8°C° 0.3 mm 4 m/s 747 mmHg 95%
    05:00 +8°C° 0.3 mm 4 m/s 746 mmHg 97%
    06:00 +8°C° 1.8 mm 4 m/s 746 mmHg 97%
    07:00 +10°C° 1.8 mm 4 m/s 746 mmHg 97%
    08:00 +10°C° 1.8 mm 3 m/s 746 mmHg 98%
    09:00 +10°C° 1.3 mm 4 m/s 746 mmHg 97%
    10:00 +11°C° 1.3 mm 4 m/s 746 mmHg 97%
    11:00 +11°C° 1.3 mm 4 m/s 746 mmHg 97%
    12:00 +12°C° 0.4 mm 4 m/s 746 mmHg 96%
    13:00 +12°C° 0.4 mm 4 m/s 745 mmHg 96%
    14:00 +12°C° 0.4 mm 4 m/s 745 mmHg 95%
    15:00 +13°C° 0.2 mm 4 m/s 745 mmHg 95%
    16:00 +13°C° 0.2 mm 3 m/s 745 mmHg 95%
    17:00 +13°C° 0.2 mm 3 m/s 744 mmHg 95%
    18:00 +13°C° 0.4 mm 3 m/s 744 mmHg 96%
    19:00 +13°C° 0.4 mm 3 m/s 744 mmHg 96%
    20:00 +13°C° 0.4 mm 3 m/s 743 mmHg 96%
    21:00 +13°C° 0.6 mm 3 m/s 742 mmHg 97%
    22:00 +13°C° 0.6 mm 3 m/s 742 mmHg 97%
    23:00 +13°C° 0.6 mm 3 m/s 741 mmHg 97%

    Amanhã, 4 Junho, Quinta-feira

    Tempo Temperatura Precipitação Vento Pressão Humidade
    00:00 +12°C° 3 mm 3 m/s 740 mmHg 98%
    01:00 +12°C° 3 mm 3 m/s 739 mmHg 98%
    02:00 +12°C° 3 mm 3 m/s 739 mmHg 98%
    03:00 +12°C° 2 mm 3 m/s 738 mmHg 98%
    04:00 +13°C° 2 mm 2 m/s 737 mmHg 99%
    05:00 +13°C° 2 mm 2 m/s 737 mmHg 99%
    06:00 +13°C° 0.3 mm 2 m/s 737 mmHg 98%
    07:00 +12°C° 0.3 mm 3 m/s 737 mmHg 97%
    08:00 +13°C° 0.3 mm 3 m/s 737 mmHg 97%
    09:00 +14°C° 0.1 mm 4 m/s 738 mmHg 92%
    10:00 +15°C° 0.1 mm 4 m/s 738 mmHg 86%
    11:00 +18°C° 0.1 mm 4 m/s 739 mmHg 81%
    12:00 +18°C° 0.4 mm 4 m/s 739 mmHg 78%
    13:00 +19°C° 0.4 mm 4 m/s 740 mmHg 75%
    14:00 +20°C° 0.4 mm 4 m/s 740 mmHg 71%
    15:00 +19°C° 0.4 mm 3 m/s 740 mmHg 73%
    16:00 +19°C° 0.4 mm 3 m/s 740 mmHg 75%
    17:00 +19°C° 0.4 mm 2 m/s 740 mmHg 77%
    18:00 +17°C° 0.5 mm 2 m/s 740 mmHg 82%
    19:00 +16°C° 0.5 mm 2 m/s 740 mmHg 86%
    20:00 +14°C° 0.5 mm 2 m/s 741 mmHg 91%
    21:00 +13°C° 0 mm 2 m/s 741 mmHg 92%
    22:00 +13°C° 0 mm 2 m/s 741 mmHg 93%
    23:00 +12°C° 0 mm 2 m/s 741 mmHg 94%

    Depois de amanhã, 5 Junho, Sexta-feira

    Tempo Temperatura Precipitação Vento Pressão Humidade
    00:00 +10°C° 0 mm 2 m/s 742 mmHg 94%
    01:00 +10°C° 0 mm 2 m/s 742 mmHg 95%
    02:00 +9°C° 0 mm 2 m/s 742 mmHg 95%
    03:00 +10°C° 0 mm 2 m/s 742 mmHg 95%
    04:00 +12°C° 0 mm 2 m/s 742 mmHg 95%
    05:00 +11°C° 0 mm 3 m/s 742 mmHg 95%
    06:00 +13°C° 0.1 mm 3 m/s 742 mmHg 90%
    07:00 +14°C° 0.1 mm 4 m/s 743 mmHg 85%
    08:00 +17°C° 0.1 mm 4 m/s 743 mmHg 80%
    09:00 +17°C° 0.8 mm 4 m/s 743 mmHg 79%
    10:00 +17°C° 0.8 mm 5 m/s 743 mmHg 78%
    11:00 +17°C° 0.8 mm 5 m/s 743 mmHg 76%
    12:00 +17°C° 0.6 mm 5 m/s 743 mmHg 76%
    13:00 +18°C° 0.6 mm 4 m/s 743 mmHg 75%
    14:00 +19°C° 0.6 mm 4 m/s 743 mmHg 75%
    15:00 +18°C° 0.7 mm 4 m/s 743 mmHg 77%
    16:00 +18°C° 0.7 mm 4 m/s 742 mmHg 79%
    17:00 +18°C° 0.7 mm 3 m/s 742 mmHg 82%
    18:00 +17°C° 0.2 mm 3 m/s 743 mmHg 85%
    19:00 +16°C° 0.2 mm 3 m/s 743 mmHg 88%
    20:00 +13°C° 0.2 mm 3 m/s 743 mmHg 91%
    21:00 +13°C° 0.2 mm 3 m/s 743 mmHg 93%
    22:00 +12°C° 0.2 mm 3 m/s 743 mmHg 95%
    23:00 +12°C° 0.2 mm 3 m/s 743 mmHg 97%

    6 Junho, Sábado

    Tempo Temperatura Precipitação Vento Pressão Humidade
    00:00 +12°C° 0 mm 3 m/s 743 mmHg 97%
    01:00 +12°C° 0 mm 3 m/s 744 mmHg 98%
    02:00 +12°C° 0 mm 3 m/s 744 mmHg 98%
    03:00 +12°C° 0 mm 3 m/s 744 mmHg 97%
    04:00 +13°C° 0 mm 3 m/s 744 mmHg 97%
    05:00 +13°C° 0 mm 3 m/s 744 mmHg 96%
    06:00 +14°C° 0 mm 3 m/s 744 mmHg 95%
    07:00 +14°C° 0 mm 3 m/s 744 mmHg 93%
    08:00 +14°C° 0 mm 3 m/s 745 mmHg 92%
    09:00 +16°C° 0 mm 3 m/s 745 mmHg 90%
    10:00 +17°C° 0 mm 4 m/s 745 mmHg 87%
    11:00 +18°C° 0 mm 4 m/s 745 mmHg 85%
    12:00 +20°C° 0.2 mm 4 m/s 745 mmHg 81%
    13:00 +21°C° 0.2 mm 4 m/s 745 mmHg 77%
    14:00 +23°C° 0.2 mm 4 m/s 745 mmHg 72%
    15:00 +22°C° 1.5 mm 3 m/s 745 mmHg 78%
    16:00 +21°C° 1.5 mm 3 m/s 745 mmHg 83%
    17:00 +20°C° 1.5 mm 2 m/s 745 mmHg 89%
    18:00 +20°C° 0.6 mm 3 m/s 745 mmHg 89%
    19:00 +19°C° 0.6 mm 3 m/s 745 mmHg 90%
    20:00 +19°C° 0.6 mm 3 m/s 745 mmHg 91%
    21:00 +19°C° 0.4 mm 3 m/s 746 mmHg 92%
    22:00 +18°C° 0.4 mm 3 m/s 746 mmHg 93%
    23:00 +18°C° 0.4 mm 3 m/s 746 mmHg 94%

    7 Junho, Domingo

    Tempo Temperatura Precipitação Vento Pressão Humidade
    00:00 +17°C° 0 mm 3 m/s 747 mmHg 95%
    01:00 +17°C° 0 mm 2 m/s 747 mmHg 96%
    02:00 +16°C° 0 mm 2 m/s 748 mmHg 97%
    03:00 +16°C° 0 mm 2 m/s 748 mmHg 97%
    04:00 +16°C° 0 mm 2 m/s 749 mmHg 96%
    05:00 +17°C° 0 mm 2 m/s 750 mmHg 96%
    06:00 +19°C° 0 mm 1 m/s 750 mmHg 89%
    07:00 +20°C° 0 mm 1 m/s 751 mmHg 83%
    08:00 +22°C° 0 mm 1 m/s 751 mmHg 77%
    09:00 +23°C° 0 mm 1 m/s 751 mmHg 70%
    10:00 +24°C° 0 mm 1 m/s 752 mmHg 63%
    11:00 +26°C° 0 mm 2 m/s 752 mmHg 56%
    12:00 +26°C° 0 mm 1 m/s 752 mmHg 54%
    13:00 +27°C° 0 mm 1 m/s 752 mmHg 52%
    14:00 +27°C° 0 mm 1 m/s 752 mmHg 51%
    15:00 +27°C° 0.1 mm 1 m/s 752 mmHg 56%
    16:00 +26°C° 0.1 mm 1 m/s 752 mmHg 61%
    17:00 +26°C° 0.1 mm 1 m/s 751 mmHg 66%
    18:00 +24°C° 0.1 mm 2 m/s 751 mmHg 73%
    19:00 +21°C° 0.1 mm 2 m/s 751 mmHg 81%
    20:00 +20°C° 0.1 mm 2 m/s 751 mmHg 89%
    21:00 +19°C° 0.1 mm 2 m/s 751 mmHg 91%
    22:00 +19°C° 0.1 mm 2 m/s 752 mmHg 92%
    23:00 +18°C° 0.1 mm 2 m/s 752 mmHg 94%

    8 Junho, Segunda-feira

    Tempo Temperatura Precipitação Vento Pressão Humidade
    00:00 +18°C° 0.1 mm 2 m/s 752 mmHg 95%
    01:00 +18°C° 0.1 mm 2 m/s 752 mmHg 96%
    02:00 +17°C° 0.1 mm 3 m/s 752 mmHg 96%
    03:00 +18°C° 0 mm 3 m/s 752 mmHg 95%
    04:00 +18°C° 0 mm 3 m/s 752 mmHg 94%
    05:00 +19°C° 0 mm 3 m/s 752 mmHg 94%
    06:00 +20°C° 0 mm 3 m/s 752 mmHg 88%
    07:00 +21°C° 0 mm 3 m/s 752 mmHg 82%
    08:00 +24°C° 0 mm 3 m/s 752 mmHg 76%
    09:00 +24°C° 0.2 mm 3 m/s 752 mmHg 72%
    10:00 +25°C° 0.2 mm 4 m/s 752 mmHg 69%
    11:00 +26°C° 0.2 mm 4 m/s 752 mmHg 66%
    12:00 +26°C° 0.8 mm 4 m/s 752 mmHg 68%
    13:00 +26°C° 0.8 mm 4 m/s 751 mmHg 70%
    14:00 +27°C° 0.8 mm 4 m/s 751 mmHg 72%
    15:00 +26°C° 1.6 mm 4 m/s 751 mmHg 76%
    16:00 +25°C° 1.6 mm 3 m/s 751 mmHg 79%
    17:00 +25°C° 1.6 mm 3 m/s 751 mmHg 82%
    18:00 +24°C° 0.2 mm 3 m/s 751 mmHg 85%
    19:00 +23°C° 0.2 mm 2 m/s 751 mmHg 88%
    20:00 +21°C° 0.2 mm 2 m/s 751 mmHg 90%
    21:00 +20°C° 0 mm 2 m/s 751 mmHg 92%
    22:00 +20°C° 0 mm 2 m/s 752 mmHg 94%
    23:00 +19°C° 0 mm 2 m/s 752 mmHg 95%
    Mostrar mais